Zurück zum Katalog

KUIPER-00135

AktivKommunikationLEO
NORAD 65961·PAYLOAD·🇺🇸 United States

Gestartet Oct 14, 2025 von Cape Canaveral Space Force Station

Loading…

Nächste Überflüge (nächste 24 Stunden)

TLE

AktuellSource: CelesTrak SupGP

Epoche: Sep 14, 2026, 23:32 UTC

1 65961C 25228Q   26257.98059028 -.00001898  00000+0 -24843-3 0  2577
2 65961  51.9008 233.6629 0000633  72.3650  45.4326 14.79930535    19

Verfolge KUIPER-00135 in Echtzeit mit AllMySat

Download on the App Store